When you browse on this site, cookies collect data to enhance your experience and personalize the content and advertising you see.
Visit our Privacy Policy to learn more. By continuing to use the site, you agree to this use of cookies and data.
  • In Portugal
  • List of Countries
  • For 7 days
  • Water Temperature
  • Weather Map
  • Weather Widgets
  • user-avatar
    Login

    Hourly Weather Klerwo

    Today, 1 April, Wednesday

    Time Temperature Precipitation Wind Pressure Humidity
    00:00 0°C° 0 mm 1 mps 733 mmHg 79%
    01:00 -1°C° 0 mm 1 mps 733 mmHg 79%
    02:00 -1°C° 0 mm 1 mps 732 mmHg 79%
    03:00 -1°C° 0 mm 1 mps 732 mmHg 79%
    04:00 -1°C° 0 mm 1 mps 732 mmHg 76%
    05:00 0°C° 0 mm 1 mps 732 mmHg 73%
    06:00 +1°C° 0 mm 1 mps 732 mmHg 66%
    07:00 +3°C° 0 mm 1 mps 732 mmHg 60%
    08:00 +5°C° 0 mm 1 mps 732 mmHg 54%
    09:00 +7°C° 0 mm 1 mps 732 mmHg 49%
    10:00 +8°C° 0 mm 1 mps 731 mmHg 46%
    11:00 +9°C° 0 mm 1 mps 731 mmHg 44%
    12:00 +10°C° 0 mm 1 mps 731 mmHg 42%
    13:00 +10°C° 0 mm 1 mps 730 mmHg 43%
    14:00 +10°C° 0 mm 1 mps 730 mmHg 44%
    15:00 +10°C° 0 mm 1 mps 729 mmHg 45%
    16:00 +9°C° 0 mm 1 mps 729 mmHg 54%
    17:00 +6°C° 0 mm 2 mps 728 mmHg 63%
    18:00 +4°C° 0 mm 2 mps 728 mmHg 71%
    19:00 +3°C° 0 mm 2 mps 728 mmHg 73%
    20:00 +2°C° 0 mm 2 mps 728 mmHg 75%
    21:00 +1°C° 0 mm 2 mps 728 mmHg 77%
    22:00 -1°C° 0 mm 2 mps 728 mmHg 78%
    23:00 +1°C° 0 mm 1 mps 728 mmHg 78%

    Tomorrow, 2 April, Thursday

    Time Temperature Precipitation Wind Pressure Humidity
    00:00 0°C° 0 mm 1 mps 728 mmHg 78%
    01:00 0°C° 0 mm 1 mps 727 mmHg 81%
    02:00 0°C° 0 mm 1 mps 727 mmHg 84%
    03:00 0°C° 0 mm 1 mps 727 mmHg 87%
    04:00 0°C° 0 mm 1 mps 727 mmHg 85%
    05:00 0°C° 0 mm 1 mps 727 mmHg 84%
    06:00 +1°C° 0 mm 1 mps 727 mmHg 83%
    07:00 +3°C° 0 mm 1 mps 727 mmHg 74%
    08:00 +5°C° 0 mm 1 mps 727 mmHg 65%
    09:00 +7°C° 0 mm 1 mps 727 mmHg 56%
    10:00 +8°C° 0 mm 1 mps 727 mmHg 54%
    11:00 +8°C° 0 mm 2 mps 726 mmHg 51%
    12:00 +9°C° 0 mm 3 mps 726 mmHg 49%
    13:00 +9°C° 0 mm 3 mps 726 mmHg 52%
    14:00 +7°C° 0 mm 4 mps 725 mmHg 55%
    15:00 +7°C° 0 mm 4 mps 725 mmHg 58%
    16:00 +6°C° 0 mm 4 mps 724 mmHg 64%
    17:00 +4°C° 0 mm 3 mps 724 mmHg 70%
    18:00 +3°C° 0 mm 3 mps 724 mmHg 76%
    19:00 +2°C° 0 mm 3 mps 725 mmHg 80%
    20:00 +3°C° 0 mm 2 mps 725 mmHg 85%
    21:00 +2°C° 0 mm 2 mps 725 mmHg 89%
    22:00 +2°C° 0 mm 2 mps 725 mmHg 90%
    23:00 +1°C° 0 mm 3 mps 725 mmHg 91%

    Day after tomorrow, 3 April, Friday

    Time Temperature Precipitation Wind Pressure Humidity
    00:00 +1°C° 0 mm 3 mps 725 mmHg 92%
    01:00 +2°C° 0.1 mm 3 mps 725 mmHg 92%
    02:00 +2°C° 0.1 mm 3 mps 725 mmHg 93%
    03:00 +3°C° 0.1 mm 3 mps 725 mmHg 94%
    04:00 +3°C° 0.1 mm 3 mps 725 mmHg 95%
    05:00 +3°C° 0.1 mm 3 mps 726 mmHg 95%
    06:00 +3°C° 0.1 mm 3 mps 726 mmHg 96%
    07:00 +3°C° 0.1 mm 3 mps 726 mmHg 94%
    08:00 +4°C° 0.1 mm 3 mps 727 mmHg 92%
    09:00 +4°C° 0.1 mm 3 mps 727 mmHg 90%
    10:00 +5°C° 0.1 mm 3 mps 727 mmHg 82%
    11:00 +6°C° 0.1 mm 4 mps 727 mmHg 75%
    12:00 +7°C° 0.1 mm 4 mps 728 mmHg 68%
    13:00 +7°C° 0.1 mm 4 mps 728 mmHg 69%
    14:00 +7°C° 0.1 mm 4 mps 727 mmHg 70%
    15:00 +7°C° 0.1 mm 4 mps 727 mmHg 72%
    16:00 +7°C° 0 mm 3 mps 727 mmHg 76%
    17:00 +6°C° 0 mm 2 mps 728 mmHg 81%
    18:00 +5°C° 0 mm 2 mps 728 mmHg 86%
    19:00 +4°C° 0 mm 2 mps 728 mmHg 87%
    20:00 +3°C° 0 mm 2 mps 729 mmHg 89%
    21:00 +3°C° 0 mm 1 mps 729 mmHg 90%
    22:00 +2°C° 0 mm 1 mps 729 mmHg 90%
    23:00 +1°C° 0 mm 1 mps 730 mmHg 91%

    4 April, Saturday

    Time Temperature Precipitation Wind Pressure Humidity
    00:00 +1°C° 0 mm 1 mps 730 mmHg 91%
    01:00 0°C° 0 mm 1 mps 730 mmHg 91%
    02:00 0°C° 0 mm 1 mps 730 mmHg 91%
    03:00 0°C° 0 mm 1 mps 730 mmHg 90%
    04:00 0°C° 0 mm 1 mps 731 mmHg 89%
    05:00 +1°C° 0 mm 1 mps 731 mmHg 87%
    06:00 +1°C° 0 mm 1 mps 731 mmHg 85%
    07:00 +3°C° 0 mm 1 mps 732 mmHg 78%
    08:00 +5°C° 0 mm 1 mps 732 mmHg 70%
    09:00 +7°C° 0 mm 2 mps 732 mmHg 62%
    10:00 +8°C° 0 mm 2 mps 732 mmHg 59%
    11:00 +9°C° 0 mm 2 mps 732 mmHg 55%
    12:00 +12°C° 0 mm 2 mps 733 mmHg 52%
    13:00 +12°C° 0 mm 2 mps 732 mmHg 52%
    14:00 +12°C° 0 mm 2 mps 732 mmHg 53%
    15:00 +12°C° 0 mm 2 mps 731 mmHg 53%
    16:00 +10°C° 0 mm 2 mps 731 mmHg 60%
    17:00 +8°C° 0 mm 2 mps 731 mmHg 67%
    18:00 +7°C° 0 mm 2 mps 731 mmHg 75%
    19:00 +6°C° 0 mm 2 mps 731 mmHg 78%
    20:00 +5°C° 0 mm 2 mps 732 mmHg 81%
    21:00 +3°C° 0 mm 3 mps 732 mmHg 84%
    22:00 +3°C° 0 mm 3 mps 732 mmHg 85%
    23:00 +3°C° 0 mm 3 mps 732 mmHg 86%

    5 April, Sunday

    Time Temperature Precipitation Wind Pressure Humidity
    00:00 +3°C° 0 mm 3 mps 732 mmHg 87%
    01:00 +2°C° 0 mm 3 mps 731 mmHg 87%
    02:00 +2°C° 0 mm 3 mps 731 mmHg 88%
    03:00 +2°C° 0 mm 3 mps 731 mmHg 88%
    04:00 +2°C° 0 mm 3 mps 731 mmHg 87%
    05:00 +2°C° 0 mm 3 mps 731 mmHg 86%
    06:00 +1°C° 0 mm 4 mps 731 mmHg 85%
    07:00 +5°C° 0 mm 4 mps 731 mmHg 79%
    08:00 +7°C° 0 mm 4 mps 731 mmHg 73%
    09:00 +9°C° 0 mm 5 mps 731 mmHg 66%
    10:00 +12°C° 0 mm 5 mps 731 mmHg 64%
    11:00 +13°C° 0 mm 5 mps 731 mmHg 61%
    12:00 +15°C° 0 mm 6 mps 731 mmHg 59%
    13:00 +15°C° 0 mm 5 mps 730 mmHg 59%
    14:00 +15°C° 0 mm 5 mps 730 mmHg 58%
    15:00 +16°C° 0 mm 5 mps 730 mmHg 58%
    16:00 +14°C° 0 mm 4 mps 729 mmHg 65%
    17:00 +13°C° 0 mm 4 mps 729 mmHg 72%
    18:00 +11°C° 0 mm 3 mps 729 mmHg 79%
    19:00 +10°C° 0 mm 3 mps 729 mmHg 79%
    20:00 +9°C° 0 mm 3 mps 729 mmHg 79%
    21:00 +8°C° 0 mm 3 mps 729 mmHg 80%
    22:00 +8°C° 0 mm 3 mps 729 mmHg 80%
    23:00 +7°C° 0 mm 3 mps 729 mmHg 81%

    6 April, Monday

    Time Temperature Precipitation Wind Pressure Humidity
    00:00 +7°C° 0 mm 3 mps 729 mmHg 82%
    01:00 +7°C° 0 mm 2 mps 729 mmHg 84%
    02:00 +6°C° 0 mm 2 mps 729 mmHg 85%
    03:00 +6°C° 0 mm 2 mps 729 mmHg 87%
    04:00 +5°C° 0 mm 3 mps 730 mmHg 86%
    05:00 +5°C° 0 mm 3 mps 730 mmHg 85%
    06:00 +5°C° 0 mm 3 mps 730 mmHg 84%
    07:00 +7°C° 0 mm 4 mps 730 mmHg 73%
    08:00 +9°C° 0 mm 6 mps 731 mmHg 62%
    09:00 +12°C° 0 mm 7 mps 731 mmHg 52%
    10:00 +14°C° 0 mm 7 mps 731 mmHg 51%
    11:00 +15°C° 0 mm 7 mps 731 mmHg 50%
    12:00 +16°C° 0 mm 7 mps 731 mmHg 49%
    13:00 +16°C° 0 mm 6 mps 732 mmHg 51%
    14:00 +16°C° 0 mm 6 mps 732 mmHg 52%
    15:00 +16°C° 0 mm 6 mps 732 mmHg 54%
    16:00 +14°C° 0 mm 5 mps 732 mmHg 62%
    17:00 +12°C° 0 mm 4 mps 732 mmHg 70%
    18:00 +11°C° 0 mm 3 mps 732 mmHg 78%
    19:00 +10°C° 0 mm 2 mps 733 mmHg 81%
    20:00 +9°C° 0 mm 2 mps 733 mmHg 83%
    21:00 +8°C° 0 mm 2 mps 734 mmHg 86%
    22:00 +8°C° 0 mm 2 mps 734 mmHg 86%
    23:00 +9°C° 0 mm 1 mps 734 mmHg 87%
    Show more